Toledo Metcalf, OH

4:53 AM EDT on March 28, 2017 (GMT -0400)
Metcalf

Weather History for KTDZ - December, 2012

Change the Weather History Date:

Tuesday, December 4, 2012

  Actual Average (KTOL) Record (KTOL)
Temperature  
Mean Temperature 52 °F -  
Max Temperature 63 °F 38 °F 66 °F (1941)
Min Temperature 41 °F 24 °F -1 °F (1966)
Degree Days  
Heating Degree Days 12    
Growing Degree Days 2 (Base 50)    
Moisture  
Dew Point 48 °F    
Average Humidity 83    
Maximum Humidity 94    
Minimum Humidity 70    
Precipitation  
Precipitation 0.14 in - - ()
Sea Level Pressure  
Sea Level Pressure 30.02 in    
Wind  
Wind Speed 14 mph (WSW)    
Max Wind Speed 18 mph    
Max Gust Speed 26 mph    
Visibility 9 miles    
Events Rain    
Averages and records for this station are not official NWS values.
T = Trace of Precipitation, MM = Missing Value Source: NWS Daily Summary

Daily Weather History Graph

Daily Weather History Graph

Search for Another Location

Airport or City:

Trip Planner

Search our weather history database for the weather conditions in past years. The results will help you decide how hot, cold, wet, or windy it might be!

Date:

Astronomy

Dec. 04, 2012 Rise Set
Actual Time 7:44 AM EST 5:04 PM EST
Civil Twilight 7:13 AM EST 5:35 PM EST
Nautical Twilight 6:38 AM EST 6:09 PM EST
Astronomical Twilight 6:05 AM EST 6:43 PM EST
Moon 10:53 PM EST (12/4) 11:35 AM EST (12/4)
Length of Visible Light 10h 21m
Length of Day
9h 19m
Waning Gibbous, 69% of the Moon is Illuminated
Dec 4
Waning Gibbous
Dec 6
Last Quarter
Dec 13
New
Dec 20
First Quarter
Dec 28
Full

Hourly Weather History & Observations

Time (EST) Temp. Windchill Dew Point Humidity Pressure Visibility Wind Dir Wind Speed Gust Speed Precip Events Conditions
12:53 AM 63.0 °F - 54.0 °F 72% 29.98 in 10.0 mi South 17.3 mph 25.3 mph N/A   Overcast
1:53 AM 61.0 °F - 53.1 °F 75% 29.97 in 10.0 mi SSW 15.0 mph 23.0 mph N/A   Mostly Cloudy
2:53 AM 61.0 °F - 52.0 °F 72% 29.97 in 10.0 mi SSW 18.4 mph 25.3 mph N/A   Clear
3:53 AM 61.0 °F - 51.1 °F 70% 29.96 in 10.0 mi SSW 18.4 mph 26.5 mph N/A   Mostly Cloudy
4:53 AM 61.0 °F - 51.1 °F 70% 29.96 in 10.0 mi SSW 16.1 mph - N/A   Mostly Cloudy
5:53 AM 60.1 °F - 51.1 °F 72% 29.96 in 10.0 mi SSW 15.0 mph - N/A   Overcast
6:53 AM 60.1 °F - 51.1 °F 72% 29.97 in 10.0 mi SSW 16.1 mph - N/A   Overcast
7:53 AM 60.1 °F - 52.0 °F 75% 29.97 in 10.0 mi SSW 13.8 mph - N/A   Overcast
8:30 AM 60.8 °F - 51.8 °F 72% 29.98 in 9.0 mi SSW 18.4 mph 26.5 mph 0.00 in Rain Light Rain
8:53 AM 57.9 °F - 54.0 °F 87% 29.99 in 9.0 mi SW 11.5 mph 21.9 mph 0.02 in Rain Light Rain
9:53 AM 57.9 °F - 54.0 °F 87% 29.99 in 10.0 mi WSW 11.5 mph - 0.01 in   Overcast
10:29 AM 57.2 °F - 55.4 °F 94% 30.00 in 10.0 mi WSW 15.0 mph - N/A   Overcast
10:42 AM 55.4 °F - 51.8 °F 88% 30.01 in 10.0 mi NW 10.4 mph - N/A   Overcast
10:53 AM 54.0 °F - 48.9 °F 83% 30.01 in 10.0 mi NW 10.4 mph - N/A   Overcast
11:12 AM 53.6 °F - 48.2 °F 82% 30.02 in 8.0 mi NW 9.2 mph - N/A   Overcast
11:26 AM 51.8 °F - 50.0 °F 94% 30.03 in 2.5 mi WNW 10.4 mph - 0.00 in Rain Light Rain
11:53 AM 51.1 °F - 48.9 °F 92% 30.02 in 1.8 mi NW 15.0 mph - 0.03 in Rain Rain
12:00 PM 50.0 °F - 48.2 °F 94% 30.01 in 2.5 mi NW 16.1 mph - 0.01 in Rain Rain
12:07 PM 50.0 °F - 46.4 °F 87% 30.00 in 8.0 mi NW 13.8 mph - 0.01 in Rain Light Rain
12:53 PM 48.9 °F - 46.0 °F 90% 30.01 in 10.0 mi WNW 8.1 mph - 0.03 in   Overcast
1:53 PM 48.9 °F - 45.0 °F 86% 30.01 in 6.0 mi West 6.9 mph - 0.03 in Rain Light Rain
2:53 PM 48.0 °F - 43.0 °F 83% 30.02 in 10.0 mi West 8.1 mph - 0.02 in Rain Light Rain
3:53 PM 48.9 °F - 45.0 °F 86% 30.04 in 10.0 mi WSW 10.4 mph - 0.00 in   Overcast
4:53 PM 48.0 °F - 43.0 °F 83% 30.06 in 10.0 mi West 9.2 mph - N/A   Overcast
5:53 PM 48.0 °F - 43.0 °F 83% 30.07 in 10.0 mi WSW 8.1 mph - N/A   Overcast
6:53 PM 46.9 °F - 43.0 °F 86% 30.09 in 10.0 mi SW 8.1 mph - N/A   Partly Cloudy
7:53 PM 45.0 °F 40.1 °F 42.1 °F 90% 30.10 in 10.0 mi WSW 9.2 mph - N/A   Clear
8:53 PM 43.0 °F 38.8 °F 39.9 °F 89% 30.11 in 10.0 mi WSW 6.9 mph - N/A   Clear
9:53 PM 42.1 °F 37.1 °F 39.0 °F 89% 30.12 in 10.0 mi SW 8.1 mph - N/A   Clear
10:53 PM 42.1 °F 37.7 °F 36.0 °F 79% 30.13 in 10.0 mi WSW 6.9 mph - N/A   Clear
11:53 PM 41.0 °F 35.8 °F 35.1 °F 79% 30.15 in 10.0 mi WSW 8.1 mph - N/A   Clear